Location: ???????
(55.3754°N, 39.3545°E)
Time: 10:45:48
(UTC+00:00)

Cosmos 2297 - Pass Details

Date: 14 April 2026
Orbit: 833 x 859 km, 71.0° (Epoch: 18 May)

Event Time Altitude Azimuth Distance (km) Brightness Sun altitude
Rises 18:21:58 0° 324° (NW) 3,443 8.6 -14.9°
Reaches altitude 10° 18:24:33 10° 331° (NNW) 2,505 7.4 -15.2°
Maximum altitude 18:30:06 47° 45° (NE) 1,125 4.3 -15.7°
Enters shadow 18:33:38 22° 110° (ESE) 1,813 4.9 -16.1°
